HST
1 20580U 90037B   24200.87601516  .00009289  00000-0  43302-3 0  9999
2 20580  28.4679 132.7501 0002485  22.7519 337.3183 15.18150890681851
ISS (ZARYA)
1 25544U 98067A   24201.40357512  .00019866  00000-0  35417-3 0  9999
2 25544  51.6389 155.7337 0010403  83.0271  63.6652 15.50032508463543
CXO
1 25867U 99040B   24202.24291878  .00000670  00000-0  00000+0 0  9993
2 25867  41.8191 150.9845 8854733 298.4036   0.6589  0.37805548 25843